| time (UTC) | temp F | wind direction | speed knots | gust knots | rain 1hr in | rain 24hr in | rain mn in | humidity % | barometer mb |
| 20260506182711 | 54 | 216 | 11.3 | 16.5 | 0.00 | 0.01 | 0.01 | 94 | 1011.2 |
| 20260506182209 | 54 | 189 | 12.2 | 17.4 | 0.00 | 0.01 | 0.01 | 94 | 1011.2 |
| 20260506181706 | 54 | 177 | 5.2 | 20.0 | 0.00 | 0.01 | 0.01 | 94 | 1011.2 |
| 20260506181204 | 54 | 210 | 7.0 | 13.9 | 0.00 | 0.01 | 0.01 | 94 | 1011.2 |
| 20260506180700 | 54 | 205 | 13.9 | 17.4 | 0.00 | 0.01 | 0.01 | 94 | 1011.4 |
| 20260506180156 | 54 | 186 | 11.3 | 17.4 | 0.02 | 0.01 | 0.01 | 94 | 1011.4 |
| 20260506175653 | 54 | 190 | 13.0 | 18.2 | 0.05 | 0.01 | 0.01 | 94 | 1011.3 |
| 20260506175150 | 54 | 199 | 10.4 | 14.8 | 0.05 | 0.01 | 0.01 | 94 | 1011.2 |
| 20260506174648 | 54 | 196 | 6.1 | 14.8 | 0.02 | 0.00 | 0.00 | 93 | 1011.2 |
| 20260506174145 | 54 | 192 | 11.3 | 17.4 | 0.00 | 0.00 | 0.00 | 93 | 1011.2 |
| 20260506173643 | 54 | 184 | 7.0 | 16.5 | 0.00 | 0.00 | 0.00 | 93 | 1011.4 |
| 20260506173139 | 54 | 189 | 9.6 | 17.4 | 0.00 | 0.00 | 0.00 | 93 | 1011.7 |
| 20260506172636 | 54 | 218 | 6.1 | 16.5 | 0.00 | 0.00 | 0.00 | 93 | 1011.7 |
| 20260506172133 | 54 | 202 | 7.8 | 22.6 | 0.00 | 0.00 | 0.00 | 93 | 1011.7 |
| 20260506171631 | 55 | 211 | 13.0 | 17.4 | 0.00 | 0.00 | 0.00 | 93 | 1011.9 |
| 20260506171128 | 55 | 203 | 12.2 | 17.4 | 0.00 | 0.00 | 0.00 | 92 | 1012.0 |
| 20260506170625 | 55 | 203 | 13.0 | 16.5 | 0.00 | 0.00 | 0.00 | 92 | 1012.1 |
| 20260506170122 | 55 | 200 | 7.8 | 16.5 | 0.00 | 0.00 | 0.00 | 92 | |
| 20260506165621 | 55 | 188 | 11.3 | 18.2 | 0.00 | 0.00 | 0.00 | 91 | 1012.1 |
| 20260506165116 | 55 | 213 | 10.4 | 19.1 | 0.00 | 0.00 | 0.00 | 91 | 1012.3 |
| 20260506164614 | 55 | 200 | 12.2 | 17.4 | 0.00 | 0.00 | 0.00 | 91 | 1012.3 |
| 20260506164111 | 55 | 208 | 14.8 | 20.9 | 0.00 | 0.00 | 0.00 | 91 | 1012.2 |
| 20260506163607 | 55 | 199 | 11.3 | 17.4 | 0.00 | 0.00 | 0.00 | 90 | 1012.5 |
| 20260506163103 | 55 | 218 | 11.3 | 16.5 | 0.00 | 0.00 | 0.00 | 90 | 1012.5 |
| 20260506162559 | 55 | 202 | 17.4 | 21.7 | 0.00 | 0.00 | 0.00 | 90 | 1012.2 |
| 20260506162056 | 56 | 201 | 16.5 | 19.1 | 0.00 | 0.00 | 0.00 | 90 | 1012.4 |
| 20260506161554 | 56 | 210 | 20.0 | 20.0 | 0.00 | 0.00 | 0.00 | 90 | 1012.4 |
| 20260506161046 | 56 | 201 | 7.8 | 19.1 | 0.00 | 0.00 | 0.00 | 90 | 1012.1 |
| 20260506160543 | 56 | 198 | 14.8 | 19.1 | 0.00 | 0.00 | 0.00 | 90 | 1012.2 |
| 20260506160040 | 56 | 189 | 15.6 | 20.0 | 0.00 | 0.00 | 0.00 | 90 | 1012.6 |
| 20260506155538 | 56 | 188 | 12.2 | 19.1 | 0.00 | 0.00 | 0.00 | 90 | 1012.4 |
| 20260506153714 | 56 | 202 | 9.6 | 17.4 | 0.00 | 0.00 | 0.00 | 89 | 1012.8 |
| 20260506153212 | 56 | 194 | 11.3 | 20.0 | 0.00 | 0.00 | 0.00 | 89 | 1012.8 |
| 20260506152709 | 56 | 186 | 12.2 | 19.1 | 0.00 | 0.00 | 0.00 | 89 | 1012.8 |
| 20260506152206 | 57 | 199 | 7.8 | 20.9 | 0.00 | 0.00 | 0.00 | 89 | 1012.6 |
| 20260506151706 | 57 | 199 | 13.9 | 19.1 | 0.00 | 0.00 | 0.00 | 89 | 1012.6 |
| 20260506151201 | 57 | 194 | 10.4 | 14.8 | 0.00 | 0.00 | 0.00 | 89 | 1012.6 |
| 20260506150658 | 57 | 206 | 14.8 | 18.2 | 0.00 | 0.00 | 0.00 | 89 | 1012.5 |
| 20260506150155 | 56 | 205 | 13.0 | 17.4 | 0.00 | 0.00 | 0.00 | 89 | 1012.5 |
| 20260506145652 | 56 | 210 | 16.5 | 21.7 | 0.00 | 0.00 | 0.00 | 90 | 1012.4 |
| 20260506145149 | 56 | 208 | 17.4 | 20.9 | 0.00 | 0.00 | 0.00 | 89 | 1012.6 |
| 20260506144647 | 56 | 200 | 13.9 | 19.1 | 0.00 | 0.00 | 0.00 | 90 | 1012.6 |
| 20260506144143 | 56 | 211 | 15.6 | 18.2 | 0.00 | 0.00 | 0.00 | 89 | 1012.6 |
| 20260506143641 | 56 | 202 | 10.4 | 20.0 | 0.00 | 0.00 | 0.00 | 89 | 1012.8 |
| 20260506143138 | 56 | 204 | 14.8 | 21.7 | 0.00 | 0.00 | 0.00 | 89 | 1012.9 |
| 20260506142637 | 56 | 195 | 11.3 | 20.9 | 0.00 | 0.00 | 0.00 | 88 | 1012.8 |
| 20260506142134 | 57 | 205 | 10.4 | 17.4 | 0.00 | 0.00 | 0.00 | 88 | 1012.8 |
| 20260506141632 | 57 | 194 | 11.3 | 18.2 | 0.00 | 0.00 | 0.00 | 87 | 1012.8 |
| 20260506141130 | 57 | 205 | 17.4 | 20.0 | 0.00 | 0.00 | 0.00 | 87 | 1012.8 |
| 20260506140627 | 57 | 207 | 7.8 | 20.9 | 0.00 | 0.00 | 0.00 | 88 | 1012.9 |
| 20260506140124 | 57 | 203 | 6.1 | 20.0 | 0.00 | 0.00 | 0.00 | 88 | 1013.0 |
| 20260506135621 | 57 | 206 | 15.6 | 20.0 | 0.00 | 0.00 | 0.00 | 88 | 1013.0 |
| 20260506135117 | 57 | 215 | 7.8 | 20.0 | 0.00 | 0.00 | 0.00 | 89 | 1013.0 |
| 20260506134614 | 56 | 199 | 14.8 | 20.9 | 0.00 | 0.00 | 0.00 | 90 | 1013.0 |
| 20260506134109 | 56 | 205 | 10.4 | 20.0 | 0.00 | 0.00 | 0.00 | 89 | 1013.5 |
| 20260506133607 | 56 | 206 | 8.7 | 23.5 | 0.00 | 0.00 | 0.00 | 89 | 1013.0 |
| 20260506133104 | 56 | 217 | 12.2 | 19.1 | 0.00 | 0.00 | 0.00 | 89 | 1012.9 |
| 20260506132601 | 56 | 192 | 7.8 | 16.5 | 0.00 | 0.00 | 0.00 | 89 | 1013.2 |
| 20260506132058 | 56 | 205 | 12.2 | 15.6 | 0.00 | 0.00 | 0.00 | 90 | 1013.2 |
| 20260506131556 | 56 | 203 | 10.4 | 16.5 | 0.00 | 0.00 | 0.00 | 90 | 1013.2 |
| 20260506131052 | 56 | 206 | 13.9 | 15.6 | 0.00 | 0.00 | 0.00 | 90 | 1012.9 |
| 20260506130549 | 56 | 210 | 13.0 | 14.8 | 0.00 | 0.00 | 0.00 | 90 | 1013.2 |
| 20260506130046 | 56 | 190 | 8.7 | 14.8 | 0.00 | 0.00 | 0.00 | 90 | 1013.2 |
| 20260506125545 | 56 | 195 | 13.0 | 16.5 | 0.00 | 0.00 | 0.00 | 89 | 1013.0 |
| 20260506125042 | 57 | 183 | 13.0 | 13.9 | 0.00 | 0.00 | 0.00 | 89 | 1013.0 |
| 20260506124539 | 56 | 201 | 11.3 | 17.4 | 0.00 | 0.00 | 0.00 | 90 | 1013.1 |
| 20260506124037 | 56 | 222 | 8.7 | 17.4 | 0.00 | 0.00 | 0.00 | 90 | 1013.1 |
| 20260506123535 | 57 | 213 | 7.8 | 16.5 | 0.00 | 0.00 | 0.00 | 89 | 1013.3 |
| 20260506123033 | 56 | 177 | 7.0 | 15.6 | 0.00 | 0.00 | 0.00 | 90 | 1013.3 |
| 20260506122529 | 56 | 206 | 3.5 | 16.5 | 0.00 | 0.00 | 0.00 | 90 | 1013.3 |
| 20260506122028 | 56 | 190 | 5.2 | 14.8 | 0.00 | 0.00 | 0.00 | 90 | 1013.5 |
| 20260506121525 | 56 | 186 | 8.7 | 14.8 | 0.00 | 0.00 | 0.00 | 90 | 1013.5 |
| 20260506121021 | 56 | 201 | 11.3 | 19.1 | 0.00 | 0.00 | 0.00 | 91 | 1013.3 |
| 20260506120519 | 56 | 214 | 13.0 | 19.1 | 0.00 | 0.00 | 0.00 | 91 | 1013.7 |
| 20260506120016 | 56 | 206 | 14.8 | 17.4 | 0.00 | 0.00 | 0.00 | 91 | 1013.4 |
| 20260506115514 | 56 | 202 | 10.4 | 21.7 | 0.00 | 0.00 | 0.00 | 91 | 1013.3 |
| 20260506115012 | 56 | 196 | 7.8 | 15.6 | 0.00 | 0.00 | 0.00 | 91 | 1013.3 |
| 20260506114509 | 56 | 219 | 13.9 | 20.0 | 0.00 | 0.00 | 0.00 | 92 | 1013.3 |
| 20260506114008 | 55 | 206 | 8.7 | 16.5 | 0.00 | 0.00 | 0.00 | 92 | 1013.1 |
| 20260506113505 | 55 | 206 | 9.6 | 19.1 | 0.00 | 0.00 | 0.00 | 92 | 1013.4 |
| 20260506113001 | 55 | 195 | 6.1 | 14.8 | 0.00 | 0.00 | 0.00 | 92 | 1013.2 |
| 20260506112459 | 55 | 195 | 15.6 | 19.1 | 0.00 | 0.00 | 0.00 | 92 | 1013.4 |
| 20260506111956 | 55 | 202 | 12.2 | 16.5 | 0.00 | 0.00 | 0.00 | 93 | 1013.3 |
| 20260506111454 | 55 | 201 | 7.0 | 17.4 | 0.00 | 0.00 | 0.00 | 93 | 1013.3 |
| 20260506110951 | 55 | 195 | 13.0 | 16.5 | 0.00 | 0.00 | 0.00 | 93 | 1013.2 |
| 20260506110449 | 54 | 193 | 9.6 | 18.2 | 0.00 | 0.00 | 0.00 | 93 | 1013.1 |
| 20260506105945 | 54 | 198 | 7.0 | 20.9 | 0.00 | 0.00 | 0.00 | 93 | 1013.1 |
| 20260506105441 | 54 | 208 | 13.0 | 21.7 | 0.00 | 0.00 | 0.00 | 93 | 1013.1 |
| 20260506104939 | 55 | 194 | 13.9 | 24.3 | 0.00 | 0.00 | 0.00 | 93 | 1013.3 |
| 20260506104437 | 55 | 196 | 7.0 | 18.2 | 0.00 | 0.00 | 0.00 | 93 | 1013.3 |
| 20260506103935 | 55 | 196 | 11.3 | 15.6 | 0.00 | 0.00 | 0.00 | 93 | 1013.3 |
| 20260506103432 | 55 | 201 | 10.4 | 15.6 | 0.00 | 0.00 | 0.00 | 93 | 1013.4 |
| 20260506102928 | 55 | 203 | 9.6 | 18.2 | 0.00 | 0.00 | 0.00 | 93 | 1013.1 |
| 20260506102427 | 54 | 197 | 5.2 | 15.6 | 0.00 | 0.00 | 0.00 | 93 | 1013.4 |
| 20260506101924 | 54 | 197 | 15.6 | 18.2 | 0.00 | 0.00 | 0.00 | 94 | 1013.1 |
| 20260506101420 | 54 | 195 | 11.3 | 18.2 | 0.00 | 0.00 | 0.00 | 94 | 1013.0 |
| 20260506100917 | 55 | 208 | 10.4 | 17.4 | 0.00 | 0.00 | 0.00 | 94 | 1013.0 |
| 20260506100416 | 54 | 191 | 11.3 | 20.0 | 0.00 | 0.00 | 0.00 | 94 | 1012.9 |
| 20260506095913 | 54 | 201 | 7.0 | 16.5 | 0.00 | 0.00 | 0.00 | 94 | 1013.2 |
| 20260506095411 | 54 | 208 | 15.6 | 20.0 | 0.00 | 0.00 | 0.00 | 94 | 1013.0 |
| 20260506094907 | 54 | 194 | 6.1 | 19.1 | 0.00 | 0.00 | 0.00 | 94 | 1013.2 |
| 20260506094406 | 54 | 195 | 11.3 | 19.1 | 0.00 | 0.00 | 0.00 | 94 | 1013.0 |
| 20260506093903 | 55 | 186 | 13.9 | 21.7 | 0.00 | 0.00 | 0.00 | 94 | 1012.9 |
| 20260506093401 | 55 | 202 | 13.9 | 17.4 | 0.00 | 0.00 | 0.00 | 94 | 1013.0 |
| 20260506092859 | 54 | 188 | 11.3 | 17.4 | 0.00 | 0.00 | 0.00 | 94 | 1013.2 |
| 20260506092356 | 54 | 205 | 8.7 | 20.0 | 0.00 | 0.00 | 0.00 | 94 | 1013.1 |
| 20260506091852 | 54 | 214 | 12.2 | 17.4 | 0.00 | 0.00 | 0.00 | 94 | 1012.9 |
| 20260506091351 | 54 | 209 | 11.3 | 18.2 | 0.00 | 0.00 | 0.00 | 94 | 1012.9 |
| 20260506090848 | 54 | 196 | 11.3 | 20.0 | 0.00 | 0.00 | 0.00 | 94 | 1013.3 |
| 20260506090345 | 54 | 198 | 11.3 | 17.4 | 0.00 | 0.00 | 0.00 | 94 | 1013.2 |
| 20260506085842 | 54 | 196 | 8.7 | 17.4 | 0.00 | 0.00 | 0.00 | 94 | 1013.1 |
| 20260506085338 | 54 | 212 | 10.4 | 19.1 | 0.00 | 0.00 | 0.00 | 94 | 1013.3 |
| 20260506084835 | 54 | 203 | 12.2 | 16.5 | 0.00 | 0.00 | 0.00 | 94 | 1013.3 |
| 20260506084332 | 55 | 210 | 7.8 | 19.1 | 0.00 | 0.00 | 0.00 | 93 | 1013.3 |
| 20260506083828 | 54 | 206 | 7.0 | 16.5 | 0.00 | 0.00 | 0.00 | 93 | 1013.3 |
| 20260506083326 | 54 | 209 | 13.9 | 18.2 | 0.00 | 0.00 | 0.00 | 93 | 1013.4 |
| 20260506082823 | 54 | 212 | 7.8 | 19.1 | 0.00 | 0.00 | 0.00 | 93 | 1013.4 |
| 20260506082319 | 54 | 208 | 11.3 | 18.2 | 0.00 | 0.00 | 0.00 | 93 | 1013.4 |
| 20260506081816 | 54 | 204 | 10.4 | 22.6 | 0.00 | 0.00 | 0.00 | 93 | 1013.5 |
| 20260506081314 | 55 | 217 | 12.2 | 19.1 | 0.00 | 0.00 | 0.00 | 93 | 1013.4 |
| 20260506080811 | 55 | 214 | 16.5 | 19.1 | 0.00 | 0.00 | 0.00 | 93 | 1013.6 |
| 20260506080307 | 55 | 202 | 9.6 | 17.4 | 0.00 | 0.00 | 0.00 | 93 | 1013.3 |
| 20260506073251 | 55 | 222 | 11.3 | 17.4 | 0.00 | 0.00 | 0.00 | 92 | 1013.5 |
| 20260506072748 | 55 | 218 | 16.5 | 22.6 | 0.00 | 0.00 | 0.00 | 92 | 1013.7 |
| 20260506072246 | 55 | 219 | 10.4 | 19.1 | 0.00 | 0.00 | 0.00 | 91 | 1013.9 |
| 20260506071744 | 55 | 208 | 14.8 | 20.0 | 0.00 | 0.00 | 0.00 | 91 | 1013.8 |
| 20260506071241 | 55 | 208 | 10.4 | 18.2 | 0.00 | 0.00 | 0.00 | 91 | 1013.8 |
| 20260506070738 | 55 | 204 | 16.5 | 20.9 | 0.00 | 0.00 | 0.00 | 91 | 1013.6 |
| 20260506070235 | 55 | 204 | 11.3 | 21.7 | 0.00 | 0.00 | 0.00 | 91 | 1013.5 |
| 20260506062212 | 55 | 207 | 12.2 | 19.1 | 0.00 | 0.00 | 0.00 | 90 | 1013.6 |
| 20260506061708 | 55 | 205 | 11.3 | 18.2 | 0.00 | 0.00 | 0.00 | 90 | 1013.7 |
| 20260506061205 | 55 | 198 | 8.7 | 17.4 | 0.00 | 0.00 | 0.00 | 90 | 1013.6 |
| 20260506060704 | 55 | 197 | 11.3 | 19.1 | 0.00 | 0.00 | 0.00 | 90 | 1013.4 |
| 20260506060200 | 55 | 194 | 11.3 | 16.5 | 0.00 | 0.00 | 0.00 | 90 | 1013.7 |
| 20260506051132 | 56 | 216 | 12.2 | 20.9 | 0.00 | 0.00 | 0.00 | 89 | 1013.7 |
| 20260506050631 | 56 | 209 | 14.8 | 21.7 | 0.00 | 0.00 | 0.00 | 89 | 1013.7 |
| 20260506050127 | 56 | 196 | 15.6 | 22.6 | 0.00 | 0.00 | 0.00 | 89 | 1013.8 |
| 20260506045121 | 56 | 213 | 21.7 | 27.8 | 0.00 | 0.00 | 0.00 | 89 | 1013.8 |
| 20260506044619 | 56 | 203 | 11.3 | 22.6 | 0.00 | 0.00 | 0.00 | 88 | 1013.9 |
| 20260506044115 | 56 | 212 | 17.4 | 23.5 | 0.00 | 0.00 | 0.00 | 88 | 1014.0 |
| 20260506043612 | 56 | 210 | 12.2 | 21.7 | 0.00 | 0.00 | 0.00 | 88 | 1013.7 |
| 20260506043111 | 56 | 206 | 14.8 | 21.7 | 0.00 | 0.00 | 0.00 | 88 | 1013.8 |
| 20260506042609 | 56 | 223 | 13.9 | 21.7 | 0.00 | 0.00 | 0.00 | 88 | 1013.6 |
| 20260506042107 | 56 | 226 | 12.2 | 21.7 | 0.00 | 0.00 | 0.00 | 88 | 1013.9 |
| 20260506041606 | 56 | 208 | 19.1 | 22.6 | 0.00 | 0.00 | 0.00 | 88 | 1013.9 |
| 20260506041102 | 56 | 206 | 19.1 | 26.9 | 0.00 | 0.00 | 0.00 | 88 | 1013.5 |
| 20260506040600 | 56 | 208 | 17.4 | 23.5 | 0.00 | 0.00 | 0.00 | 88 | 1013.9 |
| 20260506040056 | 56 | 215 | 13.9 | 24.3 | 0.00 | 0.00 | 0.00 | 88 | 1013.9 |
| 20260506035553 | 56 | 213 | 11.3 | 23.5 | 0.00 | 0.00 | 0.00 | 89 | 1013.5 |
| 20260506035050 | 56 | 206 | 20.9 | 23.5 | 0.00 | 0.00 | 0.00 | 89 | 1013.6 |
| 20260506034547 | 56 | 220 | 10.4 | 20.9 | 0.00 | 0.00 | 0.00 | 88 | 1013.8 |
| 20260506034044 | 55 | 208 | 10.4 | 22.6 | 0.00 | 0.00 | 0.00 | 88 | 1014.0 |
| 20260506033541 | 55 | 208 | 13.0 | 20.0 | 0.00 | 0.00 | 0.00 | 88 | 1013.7 |
| 20260506033038 | 56 | 184 | 7.0 | 19.1 | 0.00 | 0.00 | 0.00 | 88 | 1013.9 |
| 20260506032535 | 55 | 199 | 9.6 | 20.0 | 0.00 | 0.00 | 0.00 | 88 | 1013.9 |
| 20260506032032 | 55 | 200 | 8.7 | 18.2 | 0.00 | 0.00 | 0.00 | 88 | 1013.7 |
| 20260506031530 | 55 | 208 | 12.2 | 17.4 | 0.00 | 0.00 | 0.00 | 88 | 1013.9 |
| 20260506031026 | 55 | 205 | 10.4 | 17.4 | 0.00 | 0.00 | 0.00 | 88 | 1013.9 |
| 20260506030525 | 55 | 198 | 12.2 | 19.1 | 0.00 | 0.00 | 0.00 | 88 | 1013.9 |
| 20260506030022 | 55 | 213 | 7.8 | 22.6 | 0.00 | 0.00 | 0.00 | 88 | 1014.1 |
| 20260506025518 | 55 | 211 | 13.9 | 20.0 | 0.00 | 0.00 | 0.00 | 88 | 1013.9 |
| 20260506025015 | 55 | 215 | 13.0 | 22.6 | 0.00 | 0.00 | 0.00 | 89 | 1014.1 |
| 20260506024512 | 55 | 212 | 7.8 | 20.0 | 0.00 | 0.00 | 0.00 | 88 | 1014.1 |
| 20260506024008 | 55 | 199 | 12.2 | 16.5 | 0.00 | 0.00 | 0.00 | 88 | 1013.9 |
| 20260506023504 | 55 | 209 | 10.4 | 17.4 | 0.00 | 0.00 | 0.00 | 89 | 1013.9 |
| 20260506023001 | 55 | 209 | 12.2 | 22.6 | 0.00 | 0.00 | 0.00 | 89 | 1014.1 |
| 20260506022459 | 55 | 193 | 13.9 | 20.9 | 0.00 | 0.00 | 0.00 | 89 | 1014.0 |
| 20260506021956 | 55 | 204 | 13.0 | 20.0 | 0.00 | 0.00 | 0.00 | 88 | 1014.0 |
| 20260506021454 | 55 | 204 | 10.4 | 19.1 | 0.00 | 0.00 | 0.00 | 88 | 1014.2 |
| 20260506020951 | 55 | 203 | 9.6 | 18.2 | 0.00 | 0.00 | 0.00 | 88 | 1013.8 |
| 20260506020448 | 56 | 208 | 15.6 | 17.4 | 0.00 | 0.00 | 0.00 | 88 | 1014.1 |
| 20260506015945 | 56 | 211 | 12.2 | 21.7 | 0.00 | 0.00 | 0.00 | 87 | 1013.9 |
| 20260506015443 | 56 | 209 | 11.3 | 17.4 | 0.00 | 0.00 | 0.00 | 87 | 1013.9 |
| 20260506014939 | 56 | 211 | 9.6 | 18.2 | 0.00 | 0.00 | 0.00 | 87 | 1013.8 |
| 20260506014436 | 56 | 197 | 8.7 | 17.4 | 0.00 | 0.00 | 0.00 | 87 | 1013.7 |
| 20260506013933 | 56 | 209 | 13.9 | 16.5 | 0.00 | 0.00 | 0.00 | 87 | 1013.8 |
| 20260506013431 | 56 | 199 | 11.3 | 17.4 | 0.00 | 0.00 | 0.00 | 87 | 1013.9 |
| 20260506012927 | 56 | 204 | 8.7 | 16.5 | 0.00 | 0.00 | 0.00 | 87 | 1013.9 |
| 20260506012424 | 56 | 203 | 7.0 | 20.9 | 0.00 | 0.00 | 0.00 | 87 | 1013.6 |
| 20260506011921 | 56 | 201 | 10.4 | 20.0 | 0.00 | 0.00 | 0.00 | 87 | 1013.6 |
| 20260506011418 | 56 | 218 | 9.6 | 21.7 | 0.00 | 0.00 | 0.00 | 87 | 1013.7 |
| 20260506010915 | 56 | 215 | 12.2 | 17.4 | 0.00 | 0.00 | 0.00 | 86 | 1013.5 |
| 20260506010414 | 56 | 199 | 13.0 | 20.0 | 0.00 | 0.00 | 0.00 | 86 | 1013.6 |
| 20260506005909 | 56 | 209 | 15.6 | 20.0 | 0.00 | 0.00 | 0.00 | 86 | 1013.8 |
| 20260506005408 | 56 | 218 | 13.9 | 17.4 | 0.00 | 0.00 | 0.00 | 86 | 1013.6 |
| 20260506004902 | 56 | 217 | 14.8 | 22.6 | 0.00 | 0.00 | 0.00 | 86 | 1013.7 |
| 20260506004400 | 56 | 204 | 12.2 | 21.7 | 0.00 | 0.00 | 0.00 | 86 | 1013.8 |
| 20260506003856 | 56 | 208 | 16.5 | 22.6 | 0.00 | 0.00 | 0.00 | 86 | 1013.5 |
| 20260506003352 | 56 | 213 | 12.2 | 18.2 | 0.00 | 0.00 | 0.00 | 86 | 1013.5 |
| 20260506002849 | 56 | 204 | 18.2 | 19.1 | 0.00 | 0.00 | 0.00 | 85 | 1013.6 |
| 20260506002345 | 56 | 205 | 14.8 | 19.1 | 0.00 | 0.00 | 0.00 | 85 | 1013.1 |
| 20260506001841 | 56 | 200 | 13.9 | 20.9 | 0.00 | 0.00 | 0.00 | 84 | 1013.1 |
| 20260506001338 | 57 | 208 | 13.9 | 25.2 | 0.00 | 0.00 | 0.00 | 84 | 1012.8 |
| 20260506000835 | 56 | 215 | 14.8 | 23.5 | 0.00 | 0.00 | 0.00 | 84 | 1012.8 |
| 20260506000333 | 56 | 207 | 11.3 | 24.3 | 0.00 | 0.00 | 0.00 | 85 | 1013.1 |
| 20260505235830 | 56 | 201 | 19.1 | 26.9 | 0.00 | 0.00 | 0.00 | 85 | 1012.7 |
| 20260505235327 | 56 | 211 | 13.0 | 22.6 | 0.00 | 0.00 | 0.00 | 85 | 1012.6 |
| 20260505234824 | 56 | 212 | 19.1 | 21.7 | 0.00 | 0.00 | 0.00 | 85 | 1012.3 |
| 20260505234322 | 56 | 198 | 16.5 | 22.6 | 0.00 | 0.00 | 0.00 | 84 | 1012.3 |
| 20260505233818 | 57 | 202 | 13.0 | 23.5 | 0.00 | 0.00 | 0.00 | 84 | 1012.3 |
| 20260505233316 | 57 | 208 | 17.4 | 26.1 | 0.00 | 0.00 | 0.00 | 84 | 1012.1 |
| 20260505232813 | 57 | 220 | 17.4 | 26.1 | 0.00 | 0.00 | 0.00 | 84 | 1012.4 |
| 20260505232311 | 57 | 203 | 13.9 | 23.5 | 0.00 | 0.00 | 0.00 | 84 | 1012.3 |
| 20260505231808 | 57 | 208 | 15.6 | 24.3 | 0.00 | 0.00 | 0.00 | 84 | 1012.2 |
| 20260505231306 | 57 | 215 | 16.5 | 21.7 | 0.00 | 0.00 | 0.00 | 84 | 1012.1 |
| 20260505230804 | 57 | 204 | 17.4 | 23.5 | 0.00 | 0.00 | 0.00 | 84 | 1012.0 |
| 20260505230300 | 57 | 211 | 14.8 | 22.6 | 0.00 | 0.00 | 0.00 | 84 | 1012.1 |
| 20260505225757 | 57 | 199 | 14.8 | 22.6 | 0.00 | 0.00 | 0.00 | 84 | 1011.9 |
| 20260505225254 | 57 | 201 | 18.2 | 21.7 | 0.00 | 0.00 | 0.00 | 84 | 1012.1 |
| 20260505224749 | 57 | 193 | 10.4 | 23.5 | 0.00 | 0.00 | 0.00 | 84 | 1011.6 |
| 20260505224247 | 57 | 208 | 13.9 | 21.7 | 0.00 | 0.00 | 0.00 | 83 | 1012.0 |
| 20260505223744 | 57 | 199 | 14.8 | 22.6 | 0.00 | 0.00 | 0.00 | 83 | 1012.0 |
| 20260505223240 | 57 | 230 | 12.2 | 22.6 | 0.00 | 0.00 | 0.00 | 83 | 1012.0 |
| 20260505222736 | 57 | 208 | 16.5 | 23.5 | 0.00 | 0.00 | 0.00 | 83 | 1011.8 |
| 20260505222233 | 58 | 214 | 12.2 | 20.9 | 0.00 | 0.00 | 0.00 | 83 | 1011.8 |
| 20260505221730 | 58 | 189 | 9.6 | 26.9 | 0.00 | 0.00 | 0.00 | 82 | 1011.7 |
| 20260505221227 | 58 | 199 | 12.2 | 20.0 | 0.00 | 0.00 | 0.00 | 82 | 1011.5 |
| 20260505220723 | 58 | 206 | 15.6 | 21.7 | 0.00 | 0.00 | 0.00 | 82 | 1011.7 |
| 20260505220221 | 58 | 200 | 13.0 | 20.9 | 0.00 | 0.00 | 0.00 | 82 | 1011.9 |
| 20260505215719 | 58 | 188 | 10.4 | 20.9 | 0.00 | 0.00 | 0.00 | 83 | 1011.6 |
| 20260505215217 | 57 | 204 | 9.6 | 24.3 | 0.00 | 0.00 | 0.00 | 83 | 1011.7 |
| 20260505214714 | 57 | 215 | 12.2 | 23.5 | 0.00 | 0.00 | 0.00 | 83 | 1011.7 |
| 20260505214212 | 57 | 203 | 20.9 | 22.6 | 0.00 | 0.00 | 0.00 | 83 | 1011.4 |
| 20260505213709 | 57 | 198 | 13.0 | 24.3 | 0.00 | 0.00 | 0.00 | 82 | 1011.3 |
| 20260505213206 | 58 | 213 | 19.1 | 24.3 | 0.00 | 0.00 | 0.00 | 82 | 1011.3 |
| 20260505212702 | 58 | 186 | 13.9 | 19.1 | 0.00 | 0.00 | 0.00 | 82 | 1011.3 |
| 20260505212159 | 58 | 185 | 9.6 | 26.1 | 0.00 | 0.00 | 0.00 | 82 | 1011.3 |
| 20260505211656 | 58 | 194 | 14.8 | 21.7 | 0.00 | 0.00 | 0.00 | 82 | 1011.3 |
| 20260505211153 | 58 | 208 | 20.9 | 23.5 | 0.00 | 0.00 | 0.00 | 82 | 1011.1 |
| 20260505210650 | 58 | 204 | 13.9 | 23.5 | 0.00 | 0.00 | 0.00 | 82 | 1011.1 |
| 20260505210147 | 58 | 207 | 12.2 | 20.9 | 0.00 | 0.00 | 0.00 | 81 | 1011.1 |
| 20260505205644 | 58 | 203 | 13.0 | 25.2 | 0.00 | 0.00 | 0.00 | 81 | 1011.2 |
| 20260505205142 | 58 | 202 | 13.9 | 23.5 | 0.00 | 0.00 | 0.00 | 81 | 1011.3 |
| 20260505204638 | 58 | 197 | 13.0 | 22.6 | 0.00 | 0.00 | 0.00 | 80 | 1011.3 |
| 20260505204137 | 58 | 198 | 18.2 | 21.7 | 0.00 | 0.00 | 0.00 | 81 | 1011.1 |
| 20260505203633 | 58 | 216 | 13.0 | 20.9 | 0.00 | 0.00 | 0.00 | 81 | 1011.1 |
| 20260505203130 | 58 | 200 | 11.3 | 21.7 | 0.00 | 0.00 | 0.00 | 81 | 1011.1 |
| 20260505202626 | 58 | 220 | 7.0 | 21.7 | 0.00 | 0.00 | 0.00 | 81 | 1011.3 |
| 20260505202122 | 58 | 199 | 11.3 | 23.5 | 0.00 | 0.00 | 0.00 | 81 | 1011.2 |
| 20260505201619 | 58 | 199 | 15.6 | 22.6 | 0.00 | 0.00 | 0.00 | 81 | 1011.2 |
| 20260505201117 | 58 | 210 | 12.2 | 20.9 | 0.00 | 0.00 | 0.00 | 81 | 1011.2 |
| 20260505200614 | 58 | 202 | 11.3 | 20.0 | 0.00 | 0.00 | 0.00 | 81 | 1011.2 |
| 20260505200111 | 58 | 197 | 13.0 | 22.6 | 0.00 | 0.00 | 0.00 | 81 | 1011.5 |
| 20260505195607 | 58 | 181 | 20.0 | 22.6 | 0.00 | 0.00 | 0.00 | 82 | 1011.5 |
| 20260505195105 | 58 | 203 | 7.0 | 20.9 | 0.00 | 0.00 | 0.00 | 82 | 1011.3 |
| 20260505194602 | 58 | 183 | 8.7 | 23.5 | 0.00 | 0.00 | 0.00 | 83 | 1011.5 |
| 20260505194057 | 58 | 196 | 17.4 | 18.2 | 0.00 | 0.00 | 0.00 | 82 | 1011.6 |
| 20260505193555 | 58 | 196 | 14.8 | 16.5 | 0.00 | 0.00 | 0.00 | 82 | 1011.8 |
| 20260505193052 | 58 | 188 | 7.0 | 19.1 | 0.00 | 0.00 | 0.00 | 82 | 1011.8 |
| 20260505192550 | 58 | 207 | 12.2 | 19.1 | 0.00 | 0.00 | 0.00 | 82 | 1012.0 |
| 20260505192047 | 58 | 200 | 7.8 | 16.5 | 0.00 | 0.00 | 0.00 | 82 | 1011.9 |
| 20260505191545 | 58 | 202 | 7.8 | 15.6 | 0.00 | 0.00 | 0.00 | 83 | 1012.3 |
| 20260505191043 | 57 | 185 | 14.8 | 19.1 | 0.00 | 0.00 | 0.00 | 83 | 1012.2 |
| 20260505190537 | 58 | 172 | 11.3 | 17.4 | 0.00 | 0.00 | 0.00 | 83 | 1012.5 |
| 20260505190034 | 58 | 186 | 16.5 | 18.2 | 0.00 | 0.00 | 0.00 | 82 | 1012.5 |
| 20260505185531 | 58 | 194 | 12.2 | 15.6 | 0.00 | 0.00 | 0.00 | 81 | 1012.6 |
| 20260505185027 | 58 | 191 | 14.8 | 20.0 | 0.00 | 0.00 | 0.00 | 82 | 1012.6 |
| 20260505184524 | 58 | 204 | 11.3 | 17.4 | 0.00 | 0.00 | 0.00 | 82 | 1012.6 |
| 20260505184021 | 58 | 194 | 15.6 | 19.1 | 0.00 | 0.00 | 0.00 | 82 | 1012.7 |
| 20260505183518 | 58 | 189 | 9.6 | 20.0 | 0.00 | 0.00 | 0.00 | 82 | 1012.9 |